Year,Month,Day,Hour,Minute,Value (Times are PST for temperature in C)
2013,04,15,00,00,2.90
2013,04,15,00,01,2.90
2013,04,15,00,02,2.90
2013,04,15,00,03,2.90
2013,04,15,00,04,2.90
2013,04,15,00,05,2.90
2013,04,15,00,06,2.90
2013,04,15,00,07,3.00
2013,04,15,00,08,3.00
2013,04,15,00,09,3.00
2013,04,15,00,10,3.00
2013,04,15,00,11,3.00
2013,04,15,00,12,3.00
2013,04,15,00,13,3.00
2013,04,15,00,14,3.00
2013,04,15,00,15,3.00
2013,04,15,00,16,3.00
2013,04,15,00,17,3.00
2013,04,15,00,18,3.00
2013,04,15,00,19,3.10
2013,04,15,00,20,3.10
2013,04,15,00,21,3.10
2013,04,15,00,22,3.10
2013,04,15,00,23,3.20
2013,04,15,00,24,3.20
2013,04,15,00,25,3.20
2013,04,15,00,26,3.20
2013,04,15,00,27,3.20
2013,04,15,00,28,3.30
2013,04,15,00,29,3.30
2013,04,15,00,30,3.30
2013,04,15,00,31,3.30
2013,04,15,00,32,3.30
2013,04,15,00,33,3.40
2013,04,15,00,34,3.40
2013,04,15,00,35,3.40
2013,04,15,00,36,3.40
2013,04,15,00,37,3.40
2013,04,15,00,38,3.40
2013,04,15,00,39,3.40
2013,04,15,00,40,3.40
2013,04,15,00,41,3.40
2013,04,15,00,42,3.40
2013,04,15,00,43,3.40
2013,04,15,00,44,3.30
2013,04,15,00,45,3.30
2013,04,15,00,46,3.30
2013,04,15,00,47,3.30
2013,04,15,00,48,3.30
2013,04,15,00,49,3.30
2013,04,15,00,50,3.30
2013,04,15,00,51,3.40
2013,04,15,00,52,3.40
2013,04,15,00,53,3.40
2013,04,15,00,54,3.40
2013,04,15,00,55,3.40
2013,04,15,00,56,3.40
2013,04,15,00,57,3.40
2013,04,15,00,58,3.50
2013,04,15,00,59,3.50
2013,04,15,01,00,3.60
2013,04,15,01,01,3.60
2013,04,15,01,02,3.60
2013,04,15,01,03,3.60
2013,04,15,01,04,3.60
2013,04,15,01,05,3.60
2013,04,15,01,06,3.60
2013,04,15,01,07,3.70
2013,04,15,01,08,3.70
2013,04,15,01,09,3.70
2013,04,15,01,10,3.70
2013,04,15,01,11,3.80
2013,04,15,01,12,3.80
2013,04,15,01,13,3.80
2013,04,15,01,14,3.80
2013,04,15,01,15,3.80
2013,04,15,01,16,3.80
2013,04,15,01,17,3.80
2013,04,15,01,18,3.80
2013,04,15,01,19,3.80
2013,04,15,01,20,3.80
2013,04,15,01,21,3.80
2013,04,15,01,22,3.90
2013,04,15,01,23,3.90
2013,04,15,01,24,3.90
2013,04,15,01,25,3.90
2013,04,15,01,26,3.90
2013,04,15,01,27,3.90
2013,04,15,01,28,4.00
2013,04,15,01,29,4.00
2013,04,15,01,30,4.00
2013,04,15,01,31,4.10
2013,04,15,01,32,4.10
2013,04,15,01,33,4.10
2013,04,15,01,34,4.10
2013,04,15,01,35,4.10
2013,04,15,01,36,4.10
2013,04,15,01,37,4.10
2013,04,15,01,38,4.10
2013,04,15,01,39,4.10
2013,04,15,01,40,4.10
2013,04,15,01,41,4.10
2013,04,15,01,42,4.10
2013,04,15,01,43,4.10
2013,04,15,01,44,4.10
2013,04,15,01,45,4.10
2013,04,15,01,46,4.10
2013,04,15,01,47,4.10
2013,04,15,01,48,4.10
2013,04,15,01,49,4.10
2013,04,15,01,50,4.10
2013,04,15,01,51,4.10
2013,04,15,01,52,4.10
2013,04,15,01,53,4.10
2013,04,15,01,54,4.10
2013,04,15,01,55,4.10
2013,04,15,01,56,4.10
2013,04,15,01,57,4.10
2013,04,15,01,58,4.10
2013,04,15,01,59,4.10
2013,04,15,02,00,4.10
2013,04,15,02,01,4.10
2013,04,15,02,02,4.10
2013,04,15,02,03,4.10
2013,04,15,02,04,4.10
2013,04,15,02,05,4.10
2013,04,15,02,06,4.10
2013,04,15,02,07,4.10
2013,04,15,02,08,4.10
2013,04,15,02,09,4.10
2013,04,15,02,10,4.10
2013,04,15,02,11,4.10
2013,04,15,02,12,4.10
2013,04,15,02,13,4.10
2013,04,15,02,14,4.10
2013,04,15,02,15,4.10
2013,04,15,02,16,4.10
2013,04,15,02,17,4.10
2013,04,15,02,18,4.10
2013,04,15,02,19,4.10
2013,04,15,02,20,4.10
2013,04,15,02,21,4.10
2013,04,15,02,22,4.10
2013,04,15,02,23,4.10
2013,04,15,02,24,4.10
2013,04,15,02,25,4.20
2013,04,15,02,26,4.20
2013,04,15,02,27,4.20
2013,04,15,02,28,4.20
2013,04,15,02,29,4.20
2013,04,15,02,30,4.20
2013,04,15,02,31,4.20
2013,04,15,02,32,4.20
2013,04,15,02,33,4.20
2013,04,15,02,34,4.20
2013,04,15,02,35,4.20
2013,04,15,02,36,4.20
2013,04,15,02,37,4.30
2013,04,15,02,38,4.30
2013,04,15,02,39,4.30
2013,04,15,02,40,4.30
2013,04,15,02,41,4.30
2013,04,15,02,42,4.30
2013,04,15,02,43,4.30
2013,04,15,02,44,4.30
2013,04,15,02,45,4.30
2013,04,15,02,46,4.30
2013,04,15,02,47,4.30
2013,04,15,02,48,4.40
2013,04,15,02,49,4.40
2013,04,15,02,50,4.40
2013,04,15,02,51,4.40
2013,04,15,02,52,4.40
2013,04,15,02,53,4.40
2013,04,15,02,54,4.40
2013,04,15,02,55,4.40
2013,04,15,02,56,4.40
2013,04,15,02,57,4.30
2013,04,15,02,58,4.40
2013,04,15,02,59,4.30
2013,04,15,03,00,4.30
2013,04,15,03,01,4.30
2013,04,15,03,02,4.30
2013,04,15,03,03,4.30
2013,04,15,03,04,4.30
2013,04,15,03,05,4.30
2013,04,15,03,06,4.30
2013,04,15,03,07,4.30
2013,04,15,03,08,4.30
2013,04,15,03,09,4.30
2013,04,15,03,10,4.30
2013,04,15,03,11,4.30
2013,04,15,03,12,4.30
2013,04,15,03,13,4.30
2013,04,15,03,14,4.30
2013,04,15,03,15,4.30
2013,04,15,03,16,4.30
2013,04,15,03,17,4.30
2013,04,15,03,18,4.30
2013,04,15,03,19,4.30
2013,04,15,03,20,4.30
2013,04,15,03,21,4.30
2013,04,15,03,22,4.30
2013,04,15,03,23,4.30
2013,04,15,03,24,4.40
2013,04,15,03,25,4.40
2013,04,15,03,26,4.40
2013,04,15,03,27,4.40
2013,04,15,03,28,4.40
2013,04,15,03,29,4.40
2013,04,15,03,30,4.40
2013,04,15,03,31,4.40
2013,04,15,03,32,4.40
2013,04,15,03,33,4.40
2013,04,15,03,34,4.40
2013,04,15,03,35,4.40
2013,04,15,03,36,4.40
2013,04,15,03,37,4.40
2013,04,15,03,38,4.40
2013,04,15,03,39,4.40
2013,04,15,03,40,4.40
2013,04,15,03,41,4.40
2013,04,15,03,42,4.40
2013,04,15,03,43,4.40
2013,04,15,03,44,4.40
2013,04,15,03,45,4.40
2013,04,15,03,46,4.40
2013,04,15,03,47,4.40
2013,04,15,03,48,4.40
2013,04,15,03,49,4.40
2013,04,15,03,50,4.40
2013,04,15,03,51,4.40
2013,04,15,03,52,4.40
2013,04,15,03,53,4.40
2013,04,15,03,54,4.40
2013,04,15,03,55,4.50
2013,04,15,03,56,4.50
2013,04,15,03,57,4.50
2013,04,15,03,58,4.50
2013,04,15,03,59,4.50
2013,04,15,04,00,4.60
2013,04,15,04,01,4.60
2013,04,15,04,02,4.60
2013,04,15,04,03,4.60
2013,04,15,04,04,4.60
2013,04,15,04,05,4.60
2013,04,15,04,06,4.60
2013,04,15,04,07,4.60
2013,04,15,04,08,4.60
2013,04,15,04,09,4.60
2013,04,15,04,10,4.60
2013,04,15,04,11,4.70
2013,04,15,04,12,4.70
2013,04,15,04,13,4.70
2013,04,15,04,14,4.70
2013,04,15,04,15,4.70
2013,04,15,04,16,4.70
2013,04,15,04,17,4.70
2013,04,15,04,18,4.70
2013,04,15,04,19,4.70
2013,04,15,04,20,4.70
2013,04,15,04,21,4.70
2013,04,15,04,22,4.70
2013,04,15,04,23,4.70
2013,04,15,04,24,4.70
2013,04,15,04,25,4.70
2013,04,15,04,26,4.70
2013,04,15,04,27,4.70
2013,04,15,04,28,4.80
2013,04,15,04,29,4.80
2013,04,15,04,30,4.80
2013,04,15,04,31,4.80
2013,04,15,04,32,4.80
2013,04,15,04,33,4.80
2013,04,15,04,34,4.80
2013,04,15,04,35,4.80
2013,04,15,04,36,4.80
2013,04,15,04,37,4.80
2013,04,15,04,38,4.80
2013,04,15,04,39,4.90
2013,04,15,04,40,4.90
2013,04,15,04,41,4.90
2013,04,15,04,42,4.90
2013,04,15,04,43,4.90
2013,04,15,04,44,4.90
2013,04,15,04,45,4.90
2013,04,15,04,46,4.90
2013,04,15,04,47,4.90
2013,04,15,04,48,4.90
2013,04,15,04,49,4.80
2013,04,15,04,50,4.80
2013,04,15,04,51,4.80
2013,04,15,04,52,4.80
2013,04,15,04,53,4.80
2013,04,15,04,54,4.80
2013,04,15,04,55,4.80
2013,04,15,04,56,4.80
2013,04,15,04,57,4.70
2013,04,15,04,58,4.70
2013,04,15,04,59,4.70
2013,04,15,05,00,4.70
2013,04,15,05,01,4.70
2013,04,15,05,02,4.70
2013,04,15,05,03,4.70
2013,04,15,05,04,4.70
2013,04,15,05,05,4.70
2013,04,15,05,06,4.70
2013,04,15,05,07,4.70
2013,04,15,05,08,4.70
2013,04,15,05,09,4.70
2013,04,15,05,10,4.70
2013,04,15,05,11,4.70
2013,04,15,05,12,4.70
2013,04,15,05,13,4.70
2013,04,15,05,14,4.70
2013,04,15,05,15,4.70
2013,04,15,05,16,4.70
2013,04,15,05,17,4.70
2013,04,15,05,18,4.70
2013,04,15,05,19,4.70
2013,04,15,05,20,4.70
2013,04,15,05,21,4.70
2013,04,15,05,22,4.70
2013,04,15,05,23,4.70
2013,04,15,05,24,4.70
2013,04,15,05,25,4.70
2013,04,15,05,26,4.70
2013,04,15,05,27,4.70
2013,04,15,05,28,4.70
2013,04,15,05,29,4.70
2013,04,15,05,30,4.70
2013,04,15,05,31,4.70
2013,04,15,05,32,4.70
2013,04,15,05,33,4.70
2013,04,15,05,34,4.70
2013,04,15,05,35,4.70
2013,04,15,05,36,4.70
2013,04,15,05,37,4.70
2013,04,15,05,38,4.70
2013,04,15,05,39,4.70
2013,04,15,05,40,4.70
2013,04,15,05,41,4.70
2013,04,15,05,42,4.70
2013,04,15,05,43,4.70
2013,04,15,05,44,4.70
2013,04,15,05,45,4.80
2013,04,15,05,46,4.80
2013,04,15,05,47,4.80
2013,04,15,05,48,4.80
2013,04,15,05,49,4.80
2013,04,15,05,50,4.80
2013,04,15,05,51,4.80
2013,04,15,05,52,4.80
2013,04,15,05,53,4.80
2013,04,15,05,54,4.80
2013,04,15,05,55,4.80
2013,04,15,05,56,4.80
2013,04,15,05,57,4.80
2013,04,15,05,58,4.80
2013,04,15,05,59,4.80
2013,04,15,06,00,4.80
2013,04,15,06,01,4.80
2013,04,15,06,02,4.80
2013,04,15,06,03,4.80
2013,04,15,06,04,4.80
2013,04,15,06,05,4.80
2013,04,15,06,06,4.80
2013,04,15,06,07,4.80
2013,04,15,06,08,4.80
2013,04,15,06,09,4.80
2013,04,15,06,10,4.80
2013,04,15,06,11,4.80
2013,04,15,06,12,4.80
2013,04,15,06,13,4.80
2013,04,15,06,14,4.80
2013,04,15,06,15,4.80
2013,04,15,06,16,4.80
2013,04,15,06,17,4.80
2013,04,15,06,18,4.80
2013,04,15,06,19,4.80
2013,04,15,06,20,4.80
2013,04,15,06,21,4.90
2013,04,15,06,22,4.90
2013,04,15,06,23,4.90
2013,04,15,06,24,4.90
2013,04,15,06,25,4.90
2013,04,15,06,26,4.90
2013,04,15,06,27,4.90
2013,04,15,06,28,4.90
2013,04,15,06,29,4.90
2013,04,15,06,30,4.90
2013,04,15,06,31,4.90
2013,04,15,06,32,4.90
2013,04,15,06,33,4.90
2013,04,15,06,34,4.90
2013,04,15,06,35,4.90
2013,04,15,06,36,4.90
2013,04,15,06,37,4.90
2013,04,15,06,38,4.90
2013,04,15,06,39,4.90
2013,04,15,06,40,4.90
2013,04,15,06,41,4.90
2013,04,15,06,42,4.90
2013,04,15,06,43,4.90
2013,04,15,06,44,4.90
2013,04,15,06,45,4.80
2013,04,15,06,46,4.80
2013,04,15,06,47,4.80
2013,04,15,06,48,4.80
2013,04,15,06,49,4.80
2013,04,15,06,50,4.80
2013,04,15,06,51,4.80
2013,04,15,06,52,4.80
2013,04,15,06,53,4.80
2013,04,15,06,54,4.80
2013,04,15,06,55,4.80
2013,04,15,06,56,4.80
2013,04,15,06,57,4.80
2013,04,15,06,58,4.80
2013,04,15,06,59,4.80
2013,04,15,07,00,4.80
2013,04,15,07,01,4.80
2013,04,15,07,02,4.80
2013,04,15,07,03,4.80
2013,04,15,07,04,4.80
2013,04,15,07,05,4.80
2013,04,15,07,06,4.80
2013,04,15,07,07,4.80
2013,04,15,07,08,4.80
2013,04,15,07,09,4.80
2013,04,15,07,10,4.80
2013,04,15,07,11,4.80
2013,04,15,07,12,4.80
2013,04,15,07,13,4.80
2013,04,15,07,14,4.80
2013,04,15,07,15,4.80
2013,04,15,07,16,4.80
2013,04,15,07,17,4.80
2013,04,15,07,18,4.80
2013,04,15,07,19,4.80
2013,04,15,07,20,4.90
2013,04,15,07,21,4.90
2013,04,15,07,22,4.90
2013,04,15,07,23,4.90
2013,04,15,07,24,4.90
2013,04,15,07,25,5.00
2013,04,15,07,26,5.00
2013,04,15,07,27,5.10
2013,04,15,07,28,5.10
2013,04,15,07,29,5.10
2013,04,15,07,30,5.10
2013,04,15,07,31,5.10
2013,04,15,07,32,5.20
2013,04,15,07,33,5.20
2013,04,15,07,34,5.20
2013,04,15,07,35,5.20
2013,04,15,07,36,5.30
2013,04,15,07,37,5.30
2013,04,15,07,38,5.30
2013,04,15,07,39,5.30
2013,04,15,07,40,5.30
2013,04,15,07,41,5.30
2013,04,15,07,42,5.40
2013,04,15,07,43,5.40
2013,04,15,07,44,5.40
2013,04,15,07,45,5.40
2013,04,15,07,46,5.50
2013,04,15,07,47,5.50
2013,04,15,07,48,5.50
2013,04,15,07,49,5.50
2013,04,15,07,50,5.60
2013,04,15,07,51,5.60
2013,04,15,07,52,5.60
2013,04,15,07,53,5.60
2013,04,15,07,54,5.70
2013,04,15,07,55,5.70
2013,04,15,07,56,5.70
2013,04,15,07,57,5.70
2013,04,15,07,58,5.70
2013,04,15,07,59,5.70
2013,04,15,08,00,5.70
2013,04,15,08,01,5.70
2013,04,15,08,02,5.70
2013,04,15,08,03,5.80
2013,04,15,08,04,5.80
2013,04,15,08,05,5.80
2013,04,15,08,06,5.80
2013,04,15,08,07,5.80
2013,04,15,08,08,5.80
2013,04,15,08,09,5.80
2013,04,15,08,10,5.80
2013,04,15,08,11,5.90
2013,04,15,08,12,5.90
2013,04,15,08,13,5.90
2013,04,15,08,14,5.90
2013,04,15,08,15,5.90
2013,04,15,08,16,6.00
2013,04,15,08,17,6.00
2013,04,15,08,18,6.00
2013,04,15,08,19,6.00
2013,04,15,08,20,6.10
2013,04,15,08,21,6.10
2013,04,15,08,22,6.10
2013,04,15,08,23,6.10
2013,04,15,08,24,6.10
2013,04,15,08,25,6.10
2013,04,15,08,26,6.20
2013,04,15,08,27,6.20
2013,04,15,08,28,6.20
2013,04,15,08,29,6.20
2013,04,15,08,30,6.20
2013,04,15,08,31,6.20
2013,04,15,08,32,6.20
2013,04,15,08,33,6.20
2013,04,15,08,34,6.20
2013,04,15,08,35,6.20
2013,04,15,08,36,6.30
2013,04,15,08,37,6.30
2013,04,15,08,38,6.30
2013,04,15,08,39,6.30
2013,04,15,08,40,6.30
2013,04,15,08,41,6.30
2013,04,15,08,42,6.40
2013,04,15,08,43,6.40
2013,04,15,08,44,6.40
2013,04,15,08,45,6.50
2013,04,15,08,46,6.50
2013,04,15,08,47,6.50
2013,04,15,08,48,6.50
2013,04,15,08,49,6.60
2013,04,15,08,50,6.60
2013,04,15,08,51,6.60
2013,04,15,08,52,6.60
2013,04,15,08,53,6.70
2013,04,15,08,54,6.70
2013,04,15,08,55,6.70
2013,04,15,08,56,6.70
2013,04,15,08,57,6.80
2013,04,15,08,58,6.80
2013,04,15,08,59,6.80
2013,04,15,09,00,6.80
2013,04,15,09,01,6.80
2013,04,15,09,02,6.80
2013,04,15,09,03,6.80
2013,04,15,09,04,6.80
2013,04,15,09,05,6.80
2013,04,15,09,06,6.80
2013,04,15,09,07,6.80
2013,04,15,09,08,6.80
2013,04,15,09,09,6.80
2013,04,15,09,10,6.80
2013,04,15,09,11,6.80
2013,04,15,09,12,6.80
2013,04,15,09,13,6.80
2013,04,15,09,14,6.80
2013,04,15,09,15,6.80
2013,04,15,09,16,6.80
2013,04,15,09,17,6.80
2013,04,15,09,18,6.80
2013,04,15,09,19,6.80
2013,04,15,09,20,6.90
2013,04,15,09,21,6.90
2013,04,15,09,22,6.90
2013,04,15,09,23,6.90
2013,04,15,09,24,6.90
2013,04,15,09,25,6.90
2013,04,15,09,26,7.00
2013,04,15,09,27,7.00
2013,04,15,09,28,7.10
2013,04,15,09,29,7.10
2013,04,15,09,30,7.10
2013,04,15,09,31,7.10
2013,04,15,09,32,7.20
2013,04,15,09,33,7.20
2013,04,15,09,34,7.20
2013,04,15,09,35,7.20
2013,04,15,09,36,7.20
2013,04,15,09,37,7.30
2013,04,15,09,38,7.30
2013,04,15,09,39,7.30
2013,04,15,09,40,7.30
2013,04,15,09,41,7.30
2013,04,15,09,42,7.30
2013,04,15,09,43,7.30
2013,04,15,09,44,7.40
2013,04,15,09,45,7.40
2013,04,15,09,46,7.40
2013,04,15,09,47,7.40
2013,04,15,09,48,7.40
2013,04,15,09,49,7.40
2013,04,15,09,50,7.40
2013,04,15,09,51,7.40
2013,04,15,09,52,7.40
2013,04,15,09,53,7.40
2013,04,15,09,54,7.40
2013,04,15,09,55,7.40
2013,04,15,09,56,7.40
2013,04,15,09,57,7.40
2013,04,15,09,58,7.50
2013,04,15,09,59,7.50
2013,04,15,10,00,7.50
2013,04,15,10,01,7.50
2013,04,15,10,02,7.50
2013,04,15,10,03,7.60
2013,04,15,10,04,7.60
2013,04,15,10,05,7.60
2013,04,15,10,06,7.60
2013,04,15,10,07,7.70
2013,04,15,10,08,7.70
2013,04,15,10,09,7.70
2013,04,15,10,10,7.70
2013,04,15,10,11,7.80
2013,04,15,10,12,7.80
2013,04,15,10,13,7.80
2013,04,15,10,14,7.80
2013,04,15,10,15,7.80
2013,04,15,10,16,7.80
2013,04,15,10,17,7.80
2013,04,15,10,18,7.90
2013,04,15,10,19,7.90
2013,04,15,10,20,7.90
2013,04,15,10,21,7.90
2013,04,15,10,22,7.90
2013,04,15,10,23,8.00
2013,04,15,10,24,8.00
2013,04,15,10,25,8.00
2013,04,15,10,26,8.00
2013,04,15,10,27,8.00
2013,04,15,10,28,8.00
2013,04,15,10,29,8.00
2013,04,15,10,30,8.00
2013,04,15,10,31,8.00
2013,04,15,10,32,8.00
2013,04,15,10,33,8.10
2013,04,15,10,34,8.10
2013,04,15,10,35,8.10
2013,04,15,10,36,8.00
2013,04,15,10,37,8.00
2013,04,15,10,38,8.00
2013,04,15,10,39,8.00
2013,04,15,10,40,8.00
2013,04,15,10,41,7.90
2013,04,15,10,42,7.90
2013,04,15,10,43,7.90
2013,04,15,10,44,7.80
2013,04,15,10,45,7.80
2013,04,15,10,46,7.80
2013,04,15,10,47,7.90
2013,04,15,10,48,7.90
2013,04,15,10,49,7.90
2013,04,15,10,50,7.90
2013,04,15,10,51,7.90
2013,04,15,10,52,8.00
2013,04,15,10,53,8.00
2013,04,15,10,54,8.00
2013,04,15,10,55,8.00
2013,04,15,10,56,8.10
2013,04,15,10,57,8.10
2013,04,15,10,58,8.10
2013,04,15,10,59,8.10
2013,04,15,11,00,8.10
2013,04,15,11,01,8.10
2013,04,15,11,02,8.10
2013,04,15,11,03,8.10
2013,04,15,11,04,8.10
2013,04,15,11,05,8.10
2013,04,15,11,06,8.10
2013,04,15,11,07,8.10
2013,04,15,11,08,8.20
2013,04,15,11,09,8.20
2013,04,15,11,10,8.30
2013,04,15,11,11,8.30
2013,04,15,11,12,8.30
2013,04,15,11,13,8.30
2013,04,15,11,14,8.30
2013,04,15,11,15,8.30
2013,04,15,11,16,8.30
2013,04,15,11,17,8.30
2013,04,15,11,18,8.40
2013,04,15,11,19,8.50
2013,04,15,11,20,8.50
2013,04,15,11,21,8.60
2013,04,15,11,22,8.50
2013,04,15,11,23,8.50
2013,04,15,11,24,8.50
2013,04,15,11,25,8.50
2013,04,15,11,26,8.50
2013,04,15,11,27,8.40
2013,04,15,11,28,8.40
2013,04,15,11,29,8.40
2013,04,15,11,30,8.40
2013,04,15,11,31,8.40
2013,04,15,11,32,8.40
2013,04,15,11,33,8.50
2013,04,15,11,34,8.60
2013,04,15,11,35,8.70
2013,04,15,11,36,8.70
2013,04,15,11,37,8.80
2013,04,15,11,38,8.90
2013,04,15,11,39,8.90
2013,04,15,11,40,9.00
2013,04,15,11,41,9.00
2013,04,15,11,42,9.10
2013,04,15,11,43,9.20
2013,04,15,11,44,9.30
2013,04,15,11,45,9.30
2013,04,15,11,46,9.30
2013,04,15,11,47,9.20
2013,04,15,11,48,9.10
2013,04,15,11,49,9.10
2013,04,15,11,50,9.10
2013,04,15,11,51,9.10
2013,04,15,11,52,9.20
2013,04,15,11,53,9.20
2013,04,15,11,54,9.30
2013,04,15,11,55,9.40
2013,04,15,11,56,9.40
2013,04,15,11,57,9.50
2013,04,15,11,58,9.50
2013,04,15,11,59,9.60
2013,04,15,12,00,9.60
2013,04,15,12,01,9.70
2013,04,15,12,02,9.70
2013,04,15,12,03,9.70
2013,04,15,12,04,9.70
2013,04,15,12,05,9.70
2013,04,15,12,06,9.70
2013,04,15,12,07,9.70
2013,04,15,12,08,9.70
2013,04,15,12,09,9.70
2013,04,15,12,10,9.70
2013,04,15,12,11,9.70
2013,04,15,12,12,9.70
2013,04,15,12,13,9.70
2013,04,15,12,14,9.80
2013,04,15,12,15,9.80
2013,04,15,12,16,9.90
2013,04,15,12,17,9.80
2013,04,15,12,18,9.80
2013,04,15,12,19,9.70
2013,04,15,12,20,9.70
2013,04,15,12,21,9.70
2013,04,15,12,22,9.70
2013,04,15,12,23,9.70
2013,04,15,12,24,9.70
2013,04,15,12,25,9.60
2013,04,15,12,26,9.60
2013,04,15,12,27,9.60
2013,04,15,12,28,9.70
2013,04,15,12,29,9.80
2013,04,15,12,30,9.90
2013,04,15,12,31,10.10
2013,04,15,12,32,10.20
2013,04,15,12,33,10.10
2013,04,15,12,34,10.10
2013,04,15,12,35,10.20
2013,04,15,12,36,10.20
2013,04,15,12,37,10.30
2013,04,15,12,38,10.30
2013,04,15,12,39,10.30
2013,04,15,12,40,10.30
2013,04,15,12,41,10.20
2013,04,15,12,42,10.20
2013,04,15,12,43,10.10
2013,04,15,12,44,10.10
2013,04,15,12,45,10.10
2013,04,15,12,46,10.00
2013,04,15,12,47,10.00
2013,04,15,12,48,9.90
2013,04,15,12,49,9.80
2013,04,15,12,50,9.90
2013,04,15,12,51,9.90
2013,04,15,12,52,9.90
2013,04,15,12,53,10.00
2013,04,15,12,54,10.10
2013,04,15,12,55,10.20
2013,04,15,12,56,10.30
2013,04,15,12,57,10.40
2013,04,15,12,58,10.50
2013,04,15,12,59,10.50
2013,04,15,13,00,10.70
2013,04,15,13,01,10.80
2013,04,15,13,02,10.90
2013,04,15,13,03,10.90
2013,04,15,13,04,10.90
2013,04,15,13,05,10.90
2013,04,15,13,06,11.00
2013,04,15,13,07,11.10
2013,04,15,13,08,11.10
2013,04,15,13,09,11.20
2013,04,15,13,10,11.20
2013,04,15,13,11,11.30
2013,04,15,13,12,11.30
2013,04,15,13,13,11.20
2013,04,15,13,14,11.10
2013,04,15,13,15,11.10
2013,04,15,13,16,11.00
2013,04,15,13,17,11.00
2013,04,15,13,18,10.90
2013,04,15,13,19,10.80
2013,04,15,13,20,10.80
2013,04,15,13,21,10.80
2013,04,15,13,22,10.80
2013,04,15,13,23,10.80
2013,04,15,13,24,10.80
2013,04,15,13,25,10.80
2013,04,15,13,26,10.80
2013,04,15,13,27,10.70
2013,04,15,13,28,10.60
2013,04,15,13,29,10.50
2013,04,15,13,30,10.40
2013,04,15,13,31,10.40
2013,04,15,13,32,10.40
2013,04,15,13,33,10.40
2013,04,15,13,34,10.40
2013,04,15,13,35,10.40
2013,04,15,13,36,10.50
2013,04,15,13,37,10.70
2013,04,15,13,38,10.80
2013,04,15,13,39,10.80
2013,04,15,13,40,10.90
2013,04,15,13,41,11.00
2013,04,15,13,42,11.10
2013,04,15,13,43,11.00
2013,04,15,13,44,11.00
2013,04,15,13,45,10.90
2013,04,15,13,46,10.80
2013,04,15,13,47,10.80
2013,04,15,13,48,10.80
2013,04,15,13,49,10.90
2013,04,15,13,50,10.90
2013,04,15,13,51,10.90
2013,04,15,13,52,10.90
2013,04,15,13,53,10.80
2013,04,15,13,54,10.80
2013,04,15,13,55,10.90
2013,04,15,13,56,10.90
2013,04,15,13,57,10.90
2013,04,15,13,58,10.90
2013,04,15,13,59,10.90
2013,04,15,14,00,11.00
2013,04,15,14,01,11.00
2013,04,15,14,02,11.10
2013,04,15,14,03,11.20
2013,04,15,14,04,11.20
2013,04,15,14,05,11.20
2013,04,15,14,06,11.20
2013,04,15,14,07,11.30
2013,04,15,14,08,11.50
2013,04,15,14,09,11.60
2013,04,15,14,10,11.60
2013,04,15,14,11,11.60
2013,04,15,14,12,11.50
2013,04,15,14,13,11.50
2013,04,15,14,14,11.40
2013,04,15,14,15,11.40
2013,04,15,14,16,11.30
2013,04,15,14,17,11.40
2013,04,15,14,18,11.50
2013,04,15,14,19,11.50
2013,04,15,14,20,11.40
2013,04,15,14,21,11.30
2013,04,15,14,22,11.20
2013,04,15,14,23,11.20
2013,04,15,14,24,11.30
2013,04,15,14,25,11.30
2013,04,15,14,26,11.30
2013,04,15,14,27,11.40
2013,04,15,14,28,11.40
2013,04,15,14,29,11.50
2013,04,15,14,30,11.50
2013,04,15,14,31,11.60
2013,04,15,14,32,11.60
2013,04,15,14,33,11.60
2013,04,15,14,34,11.60
2013,04,15,14,35,11.60
2013,04,15,14,36,11.50
2013,04,15,14,37,11.50
2013,04,15,14,38,11.40
2013,04,15,14,39,11.40
2013,04,15,14,40,11.50
2013,04,15,14,41,11.50
2013,04,15,14,42,11.40
2013,04,15,14,43,11.40
2013,04,15,14,44,11.40
2013,04,15,14,45,11.40
2013,04,15,14,46,11.50
2013,04,15,14,47,11.60
2013,04,15,14,48,11.70
2013,04,15,14,49,11.90
2013,04,15,14,50,11.90
2013,04,15,14,51,12.00
2013,04,15,14,52,12.00
2013,04,15,14,53,12.00
2013,04,15,14,54,12.00
2013,04,15,14,55,12.00
2013,04,15,14,56,12.00
2013,04,15,14,57,12.00
2013,04,15,14,58,12.00
2013,04,15,14,59,12.00
2013,04,15,15,00,11.90
2013,04,15,15,01,11.80
2013,04,15,15,02,11.80
2013,04,15,15,03,11.80
2013,04,15,15,04,11.80
2013,04,15,15,05,11.90
2013,04,15,15,06,11.90
2013,04,15,15,07,11.80
2013,04,15,15,08,11.80
2013,04,15,15,09,11.80
2013,04,15,15,10,11.80
2013,04,15,15,11,11.70
2013,04,15,15,12,11.80
2013,04,15,15,13,11.80
2013,04,15,15,14,11.80
2013,04,15,15,15,11.80
2013,04,15,15,16,11.70
2013,04,15,15,17,11.70
2013,04,15,15,18,11.60
2013,04,15,15,19,11.60
2013,04,15,15,20,11.60
2013,04,15,15,21,11.70
2013,04,15,15,22,11.70
2013,04,15,15,23,11.70
2013,04,15,15,24,11.80
2013,04,15,15,25,11.80
2013,04,15,15,26,11.80
2013,04,15,15,27,11.80
2013,04,15,15,28,11.80
2013,04,15,15,29,11.80
2013,04,15,15,30,11.80
2013,04,15,15,31,11.70
2013,04,15,15,32,11.70
2013,04,15,15,33,11.70
2013,04,15,15,34,11.70
2013,04,15,15,35,11.70
2013,04,15,15,36,11.70
2013,04,15,15,37,11.80
2013,04,15,15,38,11.80
2013,04,15,15,39,11.70
2013,04,15,15,40,11.60
2013,04,15,15,41,11.60
2013,04,15,15,42,11.50
2013,04,15,15,43,11.50
2013,04,15,15,44,11.40
2013,04,15,15,45,11.30
2013,04,15,15,46,11.30
2013,04,15,15,47,11.30
2013,04,15,15,48,11.30
2013,04,15,15,49,11.40
2013,04,15,15,50,11.40
2013,04,15,15,51,11.40
2013,04,15,15,52,11.50
2013,04,15,15,53,11.50
2013,04,15,15,54,11.60
2013,04,15,15,55,11.60
2013,04,15,15,56,11.60
2013,04,15,15,57,11.50
2013,04,15,15,58,11.50
2013,04,15,15,59,11.50
2013,04,15,16,00,11.50
2013,04,15,16,01,11.50
2013,04,15,16,02,11.60
2013,04,15,16,03,11.60
2013,04,15,16,04,11.70
2013,04,15,16,05,11.70
2013,04,15,16,06,11.80
2013,04,15,16,07,11.80
2013,04,15,16,08,11.90
2013,04,15,16,09,11.90
2013,04,15,16,10,11.90
2013,04,15,16,11,12.00
2013,04,15,16,12,12.00
2013,04,15,16,13,12.10
2013,04,15,16,14,12.20
2013,04,15,16,15,12.20
2013,04,15,16,16,12.20
2013,04,15,16,17,12.10
2013,04,15,16,18,12.10
2013,04,15,16,19,12.10
2013,04,15,16,20,12.10
2013,04,15,16,21,12.10
2013,04,15,16,22,12.10
2013,04,15,16,23,12.20
2013,04,15,16,24,12.30
2013,04,15,16,25,12.30
2013,04,15,16,26,12.30
2013,04,15,16,27,12.30
2013,04,15,16,28,12.20
2013,04,15,16,29,12.20
2013,04,15,16,30,12.20
2013,04,15,16,31,12.30
2013,04,15,16,32,12.30
2013,04,15,16,33,12.30
2013,04,15,16,34,12.40
2013,04,15,16,35,12.40
2013,04,15,16,36,12.40
2013,04,15,16,37,12.40
2013,04,15,16,38,12.30
2013,04,15,16,39,12.20
2013,04,15,16,40,12.20
2013,04,15,16,41,12.10
2013,04,15,16,42,12.00
2013,04,15,16,43,12.00
2013,04,15,16,44,12.00
2013,04,15,16,45,12.10
2013,04,15,16,46,12.10
2013,04,15,16,47,12.10
2013,04,15,16,48,12.10
2013,04,15,16,49,12.10
2013,04,15,16,50,12.00
2013,04,15,16,51,11.90
2013,04,15,16,52,11.90
2013,04,15,16,53,11.90
2013,04,15,16,54,11.90
2013,04,15,16,55,11.80
2013,04,15,16,56,11.70
2013,04,15,16,57,11.70
2013,04,15,16,58,11.60
2013,04,15,16,59,11.60
2013,04,15,17,00,11.70
2013,04,15,17,01,11.70
2013,04,15,17,02,11.70
2013,04,15,17,03,11.60
2013,04,15,17,04,11.50
2013,04,15,17,05,11.40
2013,04,15,17,06,11.30
2013,04,15,17,07,11.40
2013,04,15,17,08,11.40
2013,04,15,17,09,11.40
2013,04,15,17,10,11.30
2013,04,15,17,11,11.20
2013,04,15,17,12,11.20
2013,04,15,17,13,11.20
2013,04,15,17,14,11.20
2013,04,15,17,15,11.20
2013,04,15,17,16,11.20
2013,04,15,17,17,11.20
2013,04,15,17,18,11.20
2013,04,15,17,19,11.20
2013,04,15,17,20,11.20
2013,04,15,17,21,11.20
2013,04,15,17,22,11.30
2013,04,15,17,23,11.20
2013,04,15,17,24,11.10
2013,04,15,17,25,11.10
2013,04,15,17,26,10.90
2013,04,15,17,27,10.90
2013,04,15,17,28,10.80
2013,04,15,17,29,10.80
2013,04,15,17,30,10.90
2013,04,15,17,31,11.00
2013,04,15,17,32,11.10
2013,04,15,17,33,11.20
2013,04,15,17,34,11.20
2013,04,15,17,35,11.20
2013,04,15,17,36,11.30
2013,04,15,17,37,11.30
2013,04,15,17,38,11.40
2013,04,15,17,39,11.50
2013,04,15,17,40,11.60
2013,04,15,17,41,11.70
2013,04,15,17,42,11.70
2013,04,15,17,43,11.80
2013,04,15,17,44,11.90
2013,04,15,17,45,12.00
2013,04,15,17,46,12.10
2013,04,15,17,47,12.20
2013,04,15,17,48,12.20
2013,04,15,17,49,12.30
2013,04,15,17,50,12.30
2013,04,15,17,51,12.30
2013,04,15,17,52,12.30